Location: Seattle
(47.6064°N, 122.3308°W)
Time: 02:36:33
(UTC-08:00)

N. Korean satellite - Pass Details

Date: 02 November 2020
Orbit: 453 x 503 km, 97.2° (Epoch: 03 December)

Event Time Altitude Azimuth Distance (km) Brightness Sun altitude
Rises 05:44:31 0° 13° (NNE) 2,479 10.2 -12.4°
Reaches altitude 10° 05:46:34 10° 14° (NNE) 1,600 9.3 -12.1°
Maximum altitude 05:49:59 82° 101° (E) 466 6.5 -11.5°
Drops below altitude 10° 05:53:24 10° 191° (S) 1,594 9.2 -10.9°
Sets 05:55:26 0° 192° (SSW) 2,467 10.1 -10.6°
